This demonstration page uses our WeatherBlox Daily Observations layout. Learn more.

39.92423, -83.80882

Hourly Observations for December 9, 2019

Temp ( °F °C ) Dew Point ( °F °C ) Humidity (%) Winds ( mph kmh ) Pressure ( in mb ) Visibility ( mi km ) Precip ( " mm )
12:56 am 00:56 Mostly Clear 51 10.6 42 5.6 71 71 S 9 15 29.93 1014 10 16.0934 0 0
1:56 am 01:56 Mostly Cloudy 51 10.6 42 5.6 71 71 S 9 15 29.91 1013 10 16.0934 0 0
2:56 am 02:56 Cloudy 51 10.6 42 5.6 71 71 S 9 15 29.9 1012 10 16.0934 0 0
3:56 am 03:56 Cloudy with Light Rain 51 10.6 43 6.1 74 74 S 13 20 29.88 1012 10 16.0934 0.001 0.001
4:56 am 04:56 Cloudy with Light Rain 49 9.4 45 7.2 86 86 S 9 15 29.85 1011 10 16.0934 0.001 0.001
5:56 am 05:56 Cloudy with Rain 48 8.9 47 8.3 96 96 S 9 15 29.83 1010 10 16.0934 0.02 0.508
6:56 am 06:56 Cloudy with Light Rain 47 8.3 47 8.3 100 100 SSE 12 19 29.79 1009 10 16.0934 0.07 1.778
7:56 am 07:56 Cloudy with Rain 48 8.9 48 8.9 100 100 S 13 20 29.76 1008 8 12.87472 0.08 2.032
8:34 am 08:34 Cloudy with Light Rain 48 9 48 9 100 100 SSE 13 20 29.74 1007 10 16.0934 0.02 0.508
8:43 am 08:43 Cloudy with Light Rain 48 9 48 9 100 100 S 14 22 29.74 1007 10 16.0934 0.02 0.508
8:56 am 08:56 Cloudy with Light Rain 49 9.4 49 9.4 100 100 S 15 24 29.71 1006 9 14.48406 0.03 0.762
9:12 am 09:12 Cloudy with Light Rain 48 9 48 9 100 100 S 17 28 29.72 1006 10 16.0934 0.001 0.001
9:56 am 09:56 Cloudy with Light Rain 50 10 50 10 100 100 S 14 22 29.69 1006 10 16.0934 0.001 0.001
10:56 am 10:56 Cloudy with Light Rain 52 11.1 51 10.6 97 97 SSW 18 30 29.66 1005 9 14.48406 0.01 0.254
11:56 am 11:56 Cloudy with Rain 52 11.1 51 10.6 97 97 SSW 15 24 29.62 1003 7 11.26538 0.04 1.016
12:29 pm 12:29 Cloudy with Heavy Rain 52 11 52 11 100 100 SSW 14 22 29.6 1002 4 6.43736 0.1 2.54
12:56 pm 12:56 Cloudy 52 11.1 52 11.1 100 100 SSW 15 24 29.58 1002 10 16.0934 0.11 2.794
1:56 pm 13:56 Cloudy with Light Rain 53 11.7 53 11.7 100 100 SSW 16 26 29.55 1001 5 8.0467 0.001 0.001
2:26 pm 14:26 Cloudy with Light Rain 54 12 54 12 100 100 SW 20 31 29.54 1000 9 14.48406 0.01 0.254
2:56 pm 14:56 Cloudy with Light Rain 54 12.2 53 11.7 97 97 SSW 18 30 29.55 1001 7 11.26538 0.01 0.254
3:22 pm 15:22 Cloudy with Light Rain 54 12 54 12 100 100 SSW 15 24 29.55 1001 6 9.65604 0.001 0.001
3:56 pm 15:56 Cloudy with Light Rain 54 12.2 54 12.2 100 100 SSW 15 24 29.55 1001 9 14.48406 0.001 0.001
4:36 pm 16:36 Cloudy with Light Rain 54 12 54 12 100 100 SSW 17 28 29.55 1001 2 3.21868 0.001 0.001
4:46 pm 16:46 Cloudy with Light Rain 54 12 54 12 100 100 SW 16 26 29.56 1001 5 8.0467 0.001 0.001
4:56 pm 16:56 Cloudy with Light Rain 54 12.2 54 12.2 100 100 SW 16 26 29.57 1001 3 4.82802 0.01 0.254
5:04 pm 17:04 Cloudy with Light Rain 54 12 54 12 100 100 SSW 15 24 29.56 1001 2.5 4.02335 0.001 0.001
5:13 pm 17:13 Cloudy with Light Rain 55 13 55 13 100 100 SSW 16 26 29.56 1001 5 8.0467 0.01 0.254
5:56 pm 17:56 Cloudy with Light Rain 54 12.2 54 12.2 100 100 SSW 17 28 29.57 1001 8 12.87472 0.01 0.254
6:56 pm 18:56 Cloudy with Light Rain 55 12.8 55 12.8 100 100 SW 20 31 29.58 1002 8 12.87472 0.001 0.001
7:38 pm 19:38 Cloudy 55 13 55 13 100 100 SW 14 22 29.59 1002 10 16.0934 0.001 0.001
7:56 pm 19:56 Cloudy with Light Rain 55 12.8 55 12.8 100 100 SW 16 26 29.61 1003 9 14.48406 0.001 0.001
8:29 pm 20:29 Cloudy with Light Rain 55 13 55 13 100 100 W 16 26 29.61 1003 6 9.65604 0.04 1.016
8:56 pm 20:56 Cloudy with Light Rain 54 12.2 54 12.2 100 100 W 21 33 29.63 1004 5 8.0467 0.05 1.27
9:21 pm 21:21 Cloudy with Light Rain 54 12 54 12 100 100 W 16 26 29.63 1003 10 16.0934 0.01 0.254
9:49 pm 21:49 Cloudy 54 12 52 11 94 94 W 17 28 29.65 1004 10 16.0934 0.01 0.254
9:56 pm 21:56 Cloudy 53 11.7 52 11.1 96 96 W 18 30 29.66 1004 10 16.0934 0.01 0.254
10:56 pm 22:56 Cloudy 52 11.1 51 10.6 97 97 W 15 24 29.68 1005 10 16.0934 0 0
11:03 pm 23:03 Cloudy 52 11 52 11 100 100 W 15 24 29.69 1005 10 16.0934 0 0
11:51 pm 23:51 Cloudy with Light Rain 52 11 50 10 94 94 W 17 28 29.71 1006 9 14.48406 0.001 0.001
11:56 pm 23:56 Cloudy with Light Rain 51 10.6 49 9.4 92 92 W 21 33 29.71 1006 10 16.0934 0.001 0.001

Powered by AerisWeather